NOAA 17 DEB, 48761

Orbit data source: Space-Track

NOAA 17 DEB, 48761 is space debris in SSO originally from a launch on Mon, 24 Jun 2002 UTC launched from the Air Force Western Test Range (AFWTR). Debris objects in space refer to the collection of defunct objects orbiting the Earth. Examples of debris include non-operational satellites, rocket bodies, and fragments generated from explosions, collisions, or faulty payload assembly.

Loading next visibility...
Identifier
48761, 2002-032CW
Orbit
SSO
Country
Flag of USUS
Related business
Manufacturer
Unknown
Mission
Spacecraft
Bus & Motor
Unknown
Mass
Unknown
Launch date (UTC)
2002-06-24 (24 years ago)
Launch vehicle
Unknown
Launch site
Air Force Western Test Range (AFWTR)
Object type
Payload
Rocket body
Debris
Shape & HBR
Unknown shape, 0.1 m
Radar Cross Section
Medium (>0.1 m² and <1 m²)

Expand to show TLE details & history
Last TLE update: 2 days ago

TLE from 2 days ago
0 NOAA 17 DEB
1 48761U 02032CW  26171.23060546  .00011602  00000-0  18862-2 0  9993
2 48761  98.7158 175.1834 0001208 179.4796 180.6410 14.71258305273535
Epoch: 2026-06-20T05:32Z
TLE epoch observation values (Epoch: 2026-06-20T05:32:04.311Z)
Latitude
-0.00005°
Longitude
-176.28276°
Altitude
660.888 km
Speed
7.526 km/s
True Right ascension
11h 40m 44s
True Declination
0° 00' 00"
Sunlit
Object was in daylight at epoch
Visualization orbit readout
Latitude
Unknown
Longitude
Unknown
Altitude
Unknown
Speed
Unknown
Apparent Right ascension
Unknown
Apparent Declination
Unknown
Sunlit
N/A
Visualization observer readout
Local Sidereal Time
21:49:44
Azimuth
Unknown
Elevation
Unknown
Doppler factor
Unknown
Orbital elements
Apogee altitude
654.994 km
Perigee altitude
653.295 km
Semi-major axis
7,032.282 km
Eccentricity
0.00012
Inclination
98.7158°
RAAN
175.1834°
Arg. of periapsis
179.4796°
True anomaly
180.64085°
Mean anomaly
180.641°
Eccentric anomaly
180.64092°
Mean motion
3.68043 °/min
Orbital period
97.81 mins
BSTAR
0.0018862
Loading maneuver chart data...
Computing Atmospheric mass density...

Documentation

Showing up to 5 results
|